Regional Weather Roundup
Issued by NWS Charleston, WV

Home | Current Version | Previous Version | Text Only | Print | Product List | Glossary Off
Versions: 1 2 3 4 5 6 7 8 9 10 11 12 13 14 15 16 17 18 19 20 21 22 23 24 25 26 27 28 29 30 31 32 33 34 35 36 37 38 39 40 41 42 43 44 45 46 47 48 49 50

812
ASUS41 KRLX 170510
RWRRLX
West Virginia Regional Weather Roundup
National Weather Service Charleston WV
1200 AM EST SUN DEC 17 2017

Note: "fair" indicates few or no clouds below 12,000 feet with no
significant weather and/or obstructions to visibility.

WVZ003-170600-
Northern Panhandle of West Virginia

CITY           SKY/WX    TMP DP  RH WIND       PRES   REMARKS
WHEELING       CLEAR     35  25  66 SW8       30.15R
$$

WVZ009-170600-
Northwest West Virginia

CITY           SKY/WX    TMP DP  RH WIND       PRES   REMARKS
PARKERSBURG    CLOUDY    32  24  72 S5        30.22R
$$

WVZ006-170600-
Western West Virginia

CITY           SKY/WX    TMP DP  RH WIND       PRES   REMARKS
HUNTINGTON     CLEAR     40  25  55 S6        30.22R
$$

WVZ015-170600-
West Central West Virginia

CITY           SKY/WX    TMP DP  RH WIND       PRES   REMARKS
CHARLESTON     CLOUDY    33  25  72 CALM      30.22R
$$

WVZ022-031-170600-
North Central West Virginia

CITY           SKY/WX    TMP DP  RH WIND       PRES   REMARKS
CLARKSBURG     CLEAR     36  24  62 CALM      30.19R
MORGANTOWN     CLEAR     37  24  59 S3        30.18R
$$

WVZ025-035-042-045-170600-
Southern West Virginia

CITY           SKY/WX    TMP DP  RH WIND       PRES   REMARKS
BECKLEY        CLOUDY    32  22  66 SW7       30.21R
LOGAN            N/A     37  25  60 CALM      30.23R
BLUEFIELD      CLOUDY    33  21  61 W10       30.22R
LEWISBURG      CLOUDY    30  22  73 CALM      30.22R
$$

WVZ047-170600-
Northern Mountains of West Virginia

CITY           SKY/WX    TMP DP  RH WIND       PRES   REMARKS
ELKINS         CLEAR     23  20  88 CALM      30.18R
$$

WVZ052-170600-
Eastern Panhandle of West Virginia

CITY           SKY/WX    TMP DP  RH WIND       PRES   REMARKS
MARTINSBURG    CLEAR     29  21  72 SW3       30.18R
PETERSBURG     CLEAR     33  22  64 E6        30.16F
$$




USA.gov is the U.S. government's official web portal to all federal, state and local government web resources and services.